[[{"header":{"parameterUnit":"m.s-1","parameterCategory":1,"la1":30.2991,"la2":30.254,"lo1":-89.0895,"lo2":-89.0444,"dy":0.0017,"dx":0.0017,"nx":28,"ny":28,"refTime":"2023-09-13T09:00:00:Z","depth":0,"parameterNumber":2,"parameterNumberName":"U-component_of_WINDS"},"data":[0,0,0,0,0,0,0,0,0,0,0,0,0,0,0,0,0,0,0,0,0,0,0,0,0,0,0,0,0,0,0,0,0,0,0,0,0,0,0,0,0,0,0,0,0,0,0,0,0,0,0,0,0,0,0,0,0,0,-3.7585,-3.7584,0,-3.7554,-3.7553,-3.7553,-3.7386,-3.7382,-3.7378,-3.7375,-3.7348,-3.7351,-3.7354,0,0,0,0,0,0,0,0,0,0,0,0,0,-3.7503,-3.7505,-3.7585,-3.7584,-3.7584,-3.7554,-3.7553,-3.7553,-3.7387,-3.7382,-3.7377,-3.7373,-3.7347,-3.735,-3.7354,0,0,0,0,0,0,0,0,0,0,0,0,0,-3.7512,-3.7506,-3.7585,-3.7497,-3.7489,-3.7554,-3.7553,-3.7553,-3.7388,-3.7382,-3.7376,-3.7371,-3.7346,-3.735,-3.7354,-3.7502,0,0,-3.7368,-3.737,0,0,0,0,0,0,0,0,-3.7512,-3.7515,-3.7511,-3.7503,-3.7494,-3.7468,-3.7514,-3.7536,-3.739,-3.7427,-3.7375,-3.7368,-3.7393,-3.7393,-3.74,-3.7501,-3.75,-3.7369,-3.7371,-3.7373,-3.7374,0,0,0,0,0,0,0,-3.7511,-3.7516,-3.7572,-3.7511,-3.7501,-3.7461,-3.7455,-3.7518,-3.7444,-3.7423,-3.7411,-3.7409,-3.7387,-3.7397,-3.7399,-3.7499,-3.7368,-3.7372,-3.7375,-3.7377,-3.7717,-3.7723,0,0,0,0,0,0,-3.7523,-3.7516,-3.7573,-3.7571,-3.7488,-3.7467,-3.7461,-3.7482,-3.7443,-3.7431,-3.7414,-3.7402,-3.7392,-3.7394,-3.7397,-3.7566,-3.7373,-3.7377,-3.738,-3.7711,-3.7718,-3.7725,0,0,0,0,0,0,-3.7521,-3.7529,-3.7575,-3.754,-3.7543,-3.7475,-3.75,-3.7485,-3.7494,-3.7436,-3.7422,-3.7437,-3.7387,-3.7391,-3.7476,-3.7563,-3.7379,-3.7384,-3.7703,-3.7713,-3.7722,-3.7906,0,0,0,0,0,0,-3.752,-3.753,-3.7585,-3.7543,-3.7546,-3.7654,-3.7505,-3.7489,-3.7502,-3.7485,-3.7454,-3.7443,-3.7383,-3.7471,-3.7481,-3.7566,-3.7387,-3.7695,-3.7708,-3.7719,-3.7892,-3.7921,-3.7945,0,0,0,0,0,-3.7517,-3.7639,-3.7588,-3.7596,-3.7613,-3.766,-3.7661,-3.7588,-3.7509,-3.7564,-3.7527,-3.7444,-3.7552,-3.7481,-3.7491,-3.7578,-3.7689,-3.7704,-3.7718,-3.788,-3.7915,-3.7945,0,0,0,0,0,0,-3.7696,-3.7632,-3.7575,-3.7687,-3.768,-3.7631,-3.7698,-3.7628,-3.7644,-3.7627,-3.7537,-3.7532,-3.7631,-3.7613,-3.7535,-3.7718,-3.7606,-3.7623,-3.7726,-3.7759,-3.7785,-3.7788,-3.7391,0,0,0,0,0,-3.7748,-3.779,-3.7732,-3.7837,-3.7836,-3.7768,-3.7786,-3.773,-3.7719,-3.7716,-3.7684,-3.7679,-3.771,-3.7734,-3.776,-3.7889,-3.7879,-3.7954,-3.798,-3.8002,-3.8018,-3.8084,-3.8116,-3.7772,-3.7772,-3.7772,0,0,-3.7856,-3.7827,-3.7859,-3.7872,-3.7859,-3.7906,-3.7767,-3.7822,-3.7856,-3.7725,-3.7802,-3.778,-3.7767,-3.7874,-3.792,-3.7863,-3.8111,-3.8021,-3.8039,-3.8042,-3.8102,-3.8134,-3.8163,-3.7782,-3.778,-3.7778,0,0,-3.8077,-3.8059,-3.8143,-3.8133,-3.8115,-3.8069,-3.8089,-3.8051,-3.803,-3.8106,-3.8008,-3.8048,-3.8105,-3.8099,-3.8104,-3.8321,-3.8246,-3.8333,-3.8472,-3.8537,-3.8564,-3.8587,-3.8664,-3.8693,-3.8348,-3.8349,-3.8349,0,-3.8215,-3.8279,-3.8196,-3.8257,-3.8265,-3.8146,-3.823,-3.8225,-3.8218,-3.8227,-3.8162,-3.823,-3.8213,-3.8317,-3.8369,-3.8378,-3.8398,-3.8336,-3.8566,-3.8589,-3.861,-3.8682,-3.8711,-3.8359,-3.8358,-3.8357,-3.8356,0,-3.8449,-3.8495,-3.8565,-3.8558,-3.8574,-3.8647,-3.8575,-3.8602,-3.8544,-3.8505,-3.8584,-3.8559,-3.8578,-3.8598,-3.8544,-3.8694,-3.8659,-3.8582,-3.8468,-3.8655,-3.8721,-3.8748,-3.8375,-3.8371,-3.8368,-3.8365,0,0,-3.8783,-3.8727,-3.8754,-3.8748,-3.8719,-3.8753,-3.8821,-3.8836,-3.8861,-3.886,-3.8914,-3.8964,-3.8892,-3.8897,-3.8841,-3.8898,-3.907,-3.8813,-3.8811,-3.8861,-3.9234,-3.9292,-3.9325,-3.9019,-3.9024,-3.9028,-3.9234,0,-3.8994,-3.9103,-3.9029,-3.9151,-3.9192,-3.9079,-3.9137,-3.9126,-3.9091,-3.9121,-3.9083,-3.912,-3.9022,-3.9024,-3.9076,-3.9038,-3.9143,-3.9022,-3.9069,-3.9072,-3.9076,-3.936,-3.9421,-3.9617,-3.926,-3.9264,-3.9267,0,-3.9254,-3.9262,-3.9387,-3.9347,-3.9362,-3.9415,-3.9423,-3.9453,-3.9438,-3.9409,-3.9414,-3.9342,-3.9406,-3.9293,-3.938,-3.9299,-3.9314,-3.9298,-3.9304,-3.9306,-3.9181,-3.9369,-3.9678,-3.9708,-3.9308,-3.9304,-3.9301,0,-3.9484,-3.9526,-3.9605,-3.9605,-3.956,-3.96,-3.9584,-3.9562,-3.9576,-3.9584,-3.9592,-3.9608,-3.9617,-3.9631,-3.9566,-3.949,-3.9661,-3.9543,-3.9638,-3.964,-3.968,-3.9678,-3.9996,-3.9691,-3.969,-3.9689,-3.9689,0,-3.9727,-3.9809,-3.9708,-3.9757,-3.9844,-3.9759,-3.9848,-3.982,-3.9802,-3.9844,-3.9748,-3.979,-3.9701,-3.9734,-3.9684,-3.9763,-3.9768,-3.9746,-3.9732,-3.9754,-3.9757,-3.9763,-3.9748,-3.9697,-3.9695,-3.9694,-3.9693,0,-4.0,-3.9935,-4.0014,-3.9965,-3.9954,-4.0021,-3.9979,-4.0023,-3.998,-4.0035,-4.0043,-3.9978,-4.0012,-3.9947,-3.9974,-3.994,-4.005,-4.0015,-4.0055,-4.0044,-4.0143,-4.0135,-4.0476,-4.0516,-4.0186,-4.0189,-4.0192,0,-4.0159,-4.0218,-4.0174,-4.0194,-4.0182,-4.0216,-4.0229,-4.0147,-4.0164,-4.015,-4.0196,-4.0221,-4.0237,-4.0297,-4.0253,-4.0273,-4.0237,-4.0355,-4.0239,-4.026,-4.0238,-4.0235,-4.024,-4.0379,-4.0383,-4.0386,-4.0389,0,-4.0448,-4.0412,-4.0433,-4.0443,-4.0459,-4.0464,-4.0461,-4.0484,-4.0397,-4.0422,-4.0453,-4.0466,-4.0491,-4.0518,-4.0527,-4.0511,-4.0437,-4.0425,-4.0448,-4.0472,-4.0493,-4.0482,-4.0119,-4.0418,-4.0415,-4.0413,-4.0411,-4.041,-4.0667,-4.0714,-4.0689,-4.0715,-4.0704,-4.0703,-4.0741,-4.0702,-4.0727,-4.074,-4.069,-4.0734,-4.0716,-4.0719,-4.0712,-4.0745,-4.0693,-4.0727,-4.0735,-4.0744,-4.076,-4.0488,-4.0747,-4.0746,-4.0745,-4.0744,-4.0744,0,-4.0951,-4.0928,-4.0953,-4.0951,-4.0971,-4.0896,-4.0889,-4.0912,-4.095,-4.0939,-4.0956,-4.0993,-4.1018,-4.0975,-4.0993,-4.1028,-4.0994,-4.1035,-4.1032,-4.1029,-4.0806,-4.0784,-4.1062,-4.1062,-4.1062,-4.1062,-4.1062,-4.1062,-4.11,-4.1174,-4.1136,-4.1203,-4.1181,-4.122,-4.1223,-4.1222,-4.1212,-4.1256,-4.1276,-4.1246,-4.1223,-4.1238,-4.1258,-4.1244,-4.1255,-4.1309,-4.1284,-4.1076,-4.1045,-4.1016,-4.0994,-4.1312,-4.1313,-4.1504,-4.1506,-4.1507]},{"header":{"parameterUnit":"m.s-1","parameterCategory":1,"la1":30.2991,"la2":30.254,"lo1":-89.0895,"lo2":-89.0444,"dy":0.0017,"dx":0.0017,"nx":28,"ny":28,"refTime":"2023-09-13T09:00:00:Z","depth":0,"parameterNumber":3,"parameterNumberName":"V-component_of_WINDS"},"data":[0,0,0,0,0,0,0,0,0,0,0,0,0,0,0,0,0,0,0,0,0,0,0,0,0,0,0,0,0,0,0,0,0,0,0,0,0,0,0,0,0,0,0,0,0,0,0,0,0,0,0,0,0,0,0,0,0,0,-1.8078,-1.8078,0,-1.812,-1.8121,-1.8121,-1.814,-1.814,-1.814,-1.814,-1.8182,-1.8183,-1.8184,0,0,0,0,0,0,0,0,0,0,0,0,0,-1.8009,-1.801,-1.8078,-1.8078,-1.8079,-1.812,-1.8121,-1.8121,-1.814,-1.814,-1.814,-1.814,-1.8181,-1.8183,-1.8184,0,0,0,0,0,0,0,0,0,0,0,0,0,-1.8044,-1.801,-1.8078,-1.8093,-1.8095,-1.812,-1.8121,-1.8122,-1.814,-1.814,-1.814,-1.814,-1.8181,-1.8183,-1.8184,-1.8196,0,0,-1.819,-1.819,0,0,0,0,0,0,0,0,-1.8042,-1.8046,-1.809,-1.8092,-1.8094,-1.8125,-1.8112,-1.8147,-1.814,-1.8123,-1.814,-1.814,-1.8163,-1.8166,-1.8174,-1.8198,-1.82,-1.819,-1.8191,-1.8192,-1.8192,0,0,0,0,0,0,0,-1.8039,-1.8045,-1.8095,-1.8091,-1.8093,-1.8097,-1.8102,-1.8119,-1.8143,-1.8125,-1.8126,-1.8131,-1.8164,-1.8172,-1.8175,-1.8201,-1.819,-1.8191,-1.8192,-1.8193,-1.8234,-1.8235,0,0,0,0,0,0,-1.8035,-1.8042,-1.8093,-1.8096,-1.8067,-1.8098,-1.8104,-1.8115,-1.8143,-1.8147,-1.8131,-1.8132,-1.817,-1.8173,-1.8177,-1.8191,-1.8192,-1.8193,-1.8194,-1.8234,-1.8234,-1.8235,0,0,0,0,0,0,-1.8033,-1.8039,-1.8091,-1.807,-1.8076,-1.81,-1.8112,-1.8116,-1.8125,-1.8148,-1.8152,-1.8136,-1.817,-1.8174,-1.8191,-1.8193,-1.8194,-1.8195,-1.8234,-1.8234,-1.8235,-1.8221,0,0,0,0,0,0,-1.8031,-1.8038,-1.8044,-1.807,-1.8078,-1.8106,-1.8112,-1.8117,-1.8128,-1.8129,-1.8153,-1.8157,-1.817,-1.8188,-1.8193,-1.8196,-1.8197,-1.8234,-1.8234,-1.8234,-1.8222,-1.8221,-1.8221,0,0,0,0,0,-1.8029,-1.8039,-1.8045,-1.8051,-1.8086,-1.8106,-1.8111,-1.8126,-1.8128,-1.8133,-1.8148,-1.8156,-1.8192,-1.819,-1.8195,-1.8198,-1.8234,-1.8234,-1.8234,-1.8222,-1.8221,-1.8221,0,0,0,0,0,0,-1.8013,-1.8043,-1.8049,-1.8068,-1.8085,-1.8109,-1.8117,-1.8125,-1.8141,-1.8142,-1.8159,-1.8164,-1.8179,-1.819,-1.8187,-1.821,-1.8214,-1.8215,-1.8203,-1.8202,-1.8201,-1.8198,-1.8198,0,0,0,0,0,-1.8012,-1.8027,-1.8052,-1.8066,-1.8074,-1.8094,-1.8104,-1.8114,-1.8131,-1.8138,-1.8154,-1.817,-1.8184,-1.8194,-1.8209,-1.8223,-1.8228,-1.8228,-1.8227,-1.8227,-1.8227,-1.8234,-1.8234,-1.8235,-1.8235,-1.8235,0,0,-1.801,-1.8028,-1.8036,-1.8064,-1.8078,-1.8092,-1.81,-1.8115,-1.8125,-1.814,-1.8157,-1.8169,-1.8187,-1.8202,-1.821,-1.8212,-1.8228,-1.8227,-1.8226,-1.8227,-1.8234,-1.8234,-1.8234,-1.8235,-1.8235,-1.8235,0,0,-1.8013,-1.8029,-1.8042,-1.8055,-1.8076,-1.8089,-1.8092,-1.8115,-1.8123,-1.814,-1.8151,-1.8163,-1.8189,-1.8201,-1.8211,-1.8216,-1.8223,-1.822,-1.8216,-1.8223,-1.8223,-1.8223,-1.8223,-1.8224,-1.822,-1.822,-1.822,0,-1.8008,-1.803,-1.8047,-1.8061,-1.8072,-1.8086,-1.8098,-1.811,-1.8135,-1.8141,-1.8143,-1.8174,-1.8188,-1.8206,-1.8207,-1.8214,-1.8217,-1.8217,-1.8222,-1.8222,-1.8222,-1.8223,-1.8223,-1.822,-1.822,-1.822,-1.822,0,-1.8022,-1.8037,-1.8045,-1.8068,-1.8079,-1.8092,-1.811,-1.8119,-1.8128,-1.814,-1.8155,-1.8172,-1.819,-1.8195,-1.8204,-1.8213,-1.8213,-1.8218,-1.8222,-1.8221,-1.8222,-1.8222,-1.8219,-1.8219,-1.8219,-1.822,0,0,-1.8018,-1.8049,-1.8051,-1.8061,-1.8084,-1.8096,-1.8108,-1.8126,-1.8133,-1.8148,-1.8159,-1.8179,-1.8183,-1.8194,-1.8204,-1.8209,-1.8211,-1.8213,-1.8214,-1.8212,-1.822,-1.8216,-1.8216,-1.8216,-1.8216,-1.8216,-1.8218,0,-1.8023,-1.8048,-1.8062,-1.808,-1.8093,-1.8106,-1.8116,-1.8131,-1.8142,-1.8154,-1.8165,-1.8179,-1.8184,-1.819,-1.8197,-1.8209,-1.8212,-1.8209,-1.8224,-1.8224,-1.8219,-1.8217,-1.8213,-1.8214,-1.8219,-1.8219,-1.8219,0,-1.8034,-1.8049,-1.8068,-1.8088,-1.8094,-1.8104,-1.812,-1.8131,-1.8147,-1.8154,-1.8165,-1.8175,-1.8187,-1.819,-1.8206,-1.8203,-1.821,-1.8217,-1.8217,-1.8219,-1.8222,-1.8218,-1.8215,-1.8215,-1.822,-1.822,-1.822,0,-1.8028,-1.8053,-1.8067,-1.8075,-1.8099,-1.8105,-1.8115,-1.8131,-1.814,-1.8153,-1.8159,-1.8174,-1.8182,-1.8192,-1.8205,-1.8206,-1.8219,-1.8223,-1.8225,-1.8224,-1.8227,-1.8227,-1.8225,-1.8232,-1.8232,-1.8232,-1.8232,0,-1.8032,-1.8043,-1.8065,-1.8073,-1.8085,-1.8101,-1.8112,-1.8122,-1.8136,-1.8146,-1.8157,-1.8166,-1.8183,-1.8193,-1.8203,-1.8214,-1.8218,-1.8223,-1.8226,-1.8222,-1.8221,-1.8227,-1.8227,-1.8232,-1.8232,-1.8232,-1.8232,0,-1.8028,-1.8043,-1.8059,-1.8079,-1.8085,-1.8092,-1.811,-1.8118,-1.8128,-1.8141,-1.8144,-1.8161,-1.8174,-1.8188,-1.8205,-1.8212,-1.8222,-1.8226,-1.8217,-1.8218,-1.8218,-1.8218,-1.822,-1.822,-1.8227,-1.8227,-1.8227,0,-1.803,-1.8039,-1.806,-1.8067,-1.8077,-1.8089,-1.8098,-1.8113,-1.8121,-1.8139,-1.8144,-1.8158,-1.817,-1.8189,-1.8202,-1.8215,-1.8219,-1.8218,-1.8221,-1.8216,-1.8218,-1.8217,-1.8217,-1.8218,-1.8218,-1.8218,-1.8217,0,-1.8031,-1.8038,-1.8051,-1.8065,-1.8076,-1.8088,-1.8101,-1.8106,-1.8123,-1.8132,-1.8145,-1.8154,-1.8171,-1.8184,-1.8198,-1.8207,-1.8214,-1.8216,-1.8217,-1.8214,-1.8208,-1.821,-1.8214,-1.8216,-1.8217,-1.8217,-1.8217,-1.8217,-1.803,-1.8037,-1.8053,-1.8066,-1.8077,-1.8088,-1.8096,-1.8108,-1.8119,-1.8135,-1.8142,-1.8155,-1.8168,-1.8188,-1.8196,-1.8206,-1.8208,-1.821,-1.821,-1.821,-1.8209,-1.8206,-1.8209,-1.8209,-1.8209,-1.8209,-1.8209,0,-1.8031,-1.8041,-1.8053,-1.807,-1.808,-1.8087,-1.81,-1.8108,-1.8119,-1.8131,-1.8142,-1.8156,-1.8168,-1.8182,-1.8194,-1.8199,-1.8203,-1.8202,-1.8201,-1.8203,-1.8206,-1.8204,-1.8199,-1.8199,-1.8199,-1.8199,-1.8199,-1.8199,-1.8033,-1.8045,-1.8053,-1.8071,-1.8081,-1.8093,-1.81,-1.811,-1.812,-1.8135,-1.8145,-1.8154,-1.8166,-1.8179,-1.819,-1.8193,-1.8197,-1.8195,-1.8199,-1.8202,-1.8203,-1.8204,-1.8202,-1.8196,-1.8196,-1.8195,-1.8195,-1.8195]}]]